KKSNEWCA7 Weather Reports


time (UTC)temp
C
wind
direction
speed
KPH
gust
KPH
rain 1hr
cm
rain 24hr
cm
rain mn
cm
humidity
%
barometer
mb
20260906191019 33 78 0.0 1.6 0.00 0.00 0.00 53 1015.6
20260906190518 33 71 0.0 1.6 0.00 0.00 0.00 55 1015.8
20260906190118 33 69 0.0 1.6 0.00 0.00 0.00 55 1015.8
20260906185517 33 50 0.0 4.8 0.00 0.00 0.00 55 1015.7
20260906185023 33 46 0.0 4.8 0.00 0.00 0.00 53 1016.0
20260906184545 33 60 0.0 4.8 0.00 0.00 0.00 53 1016.2
20260906184017 33 65 0.0 1.6 0.00 0.00 0.00 55 1016.3
20260906183519 33 80 0.0 1.6 0.00 0.00 0.00 53 1016.5
20260906183053 33 67 0.0 8.0 0.00 0.00 0.00 55 1016.5
20260906182517 33 5 1.6 8.0 0.00 0.00 0.00 55 1016.6
20260906182017 32 25 0.0 6.4 0.00 0.00 0.00 57 1016.7
20260906181544 32 33 0.0 12.9 0.00 0.00 0.00 60 1016.8
20260906181021 32 80 4.8 12.9 0.00 0.00 0.00 59 1017.0
20260906180518 32 11 3.2 12.9 0.00 0.00 0.00 62 1017.0
20260906180046 31 19 4.8 12.9 0.00 0.00 0.00 61 1017.4
20260906175522 31 352 6.4 12.9 0.00 0.00 0.00 61 1017.3
20260906175019 31 15 6.4 11.3 0.00 0.00 0.00 60 1017.4
20260906174544 31 52 6.4 12.9 0.00 0.00 0.00 60 1017.5
20260906174020 31 26 6.4 11.3 0.00 0.00 0.00 59 1017.5
20260906173517 31 56 4.8 8.0 0.00 0.00 0.00 59 1017.5
20260906173048 31 5 1.6 9.7 0.00 0.00 0.00 61 1017.5
20260906172518 31 345 3.2 12.9 0.00 0.00 0.00 60 1017.6
20260906172016 31 16 3.2 12.9 0.00 0.00 0.00 61 1017.7
20260906171538 31 22 3.2 8.0 0.00 0.00 0.00 62 1017.7
20260906171018 31 77 4.8 8.0 0.00 0.00 0.00 59 1017.8
20260906170520 31 47 3.2 8.0 0.00 0.00 0.00 60 1017.7
20260906170046 31 48 4.8 8.0 0.00 0.00 0.00 60 1017.8
20260906165520 31 360 3.2 8.0 0.00 0.00 0.00 61 1017.8
20260906165018 31 9 3.2 6.4 0.00 0.00 0.00 59 1017.8
20260906164545 31 74 1.6 4.8 0.00 0.00 0.00 59 1017.9
20260906164020 31 68 0.0 9.7 0.00 0.00 0.00 58 1018.0
20260906163520 31 76 3.2 12.9 0.00 0.00 0.00 58 1017.9
20260906163044 31 38 4.8 9.7 0.00 0.00 0.00 58 1018.1
20260906162519 31 15 4.8 9.7 0.00 0.00 0.00 57 1018.3
20260906162016 31 11 4.8 11.3 0.00 0.00 0.00 56 1018.0
20260906161546 31 56 4.8 8.0 0.00 0.00 0.00 56 1018.0
20260906161019 31 348 3.2 12.9 0.00 0.00 0.00 59 1018.0
20260906160520 31 23 4.8 12.9 0.00 0.00 0.00 57 1018.0
20260906160047 31 351 4.8 9.7 0.00 0.00 0.00 59 1018.2
20260906155521 31 32 6.4 14.5 0.00 0.00 0.00 59 1018.2
20260906155020 31 5 6.4 14.5 0.00 0.00 0.00 60 1018.0
20260906154544 31 325 3.2 8.0 0.00 0.00 0.00 61 1018.0
20260906154019 30 336 0.0 8.0 0.00 0.00 0.00 68 1018.0
20260906153519 30 337 3.2 8.0 0.00 0.00 0.00 65 1017.9
20260906153047 30 348 4.8 8.0 0.00 0.00 0.00 65 1017.7
20260906152515 29 304 1.6 4.8 0.00 0.00 0.00 69 1017.8
20260906152019 28 329 0.0 3.2 0.00 0.00 0.00 72 1017.6
20260906151545 28 335 0.0 6.4 0.00 0.00 0.00 71 1017.6
20260906151023 28 9 1.6 6.4 0.00 0.00 0.00 69 1017.5
20260906150520 27 328 0.0 4.8 0.00 0.00 0.00 72 1017.4
20260906150044 27 328 0.0 9.7 0.00 0.00 0.00 72 1017.5
20260906145521 27 314 1.6 16.1 0.00 0.00 0.00 72 1017.5
20260906145025 27 360 8.0 19.3 0.00 0.00 0.00 72 1017.7
20260906144544 27 150 0.0 19.3 0.00 0.00 0.00 69 1017.0
20260906144016 27 355 11.3 17.7 0.00 0.00 0.00 73 1017.7
20260906143520 27 84 0.0 0.0 0.00 0.00 0.00 72 1017.1
20260906143048 26 84 0.0 0.0 0.00 0.00 0.00 72 1017.0
20260906142523 26 84 0.0 0.0 0.00 0.00 0.00 75 1016.8
20260906142022 26 84 0.0 0.0 0.00 0.00 0.00 75 1016.8
20260906141543 26 84 0.0 0.0 0.00 0.00 0.00 76 1016.9
20260906141018 25 84 0.0 0.0 0.00 0.00 0.00 77 1016.9
20260906140523 25 84 0.0 0.0 0.00 0.00 0.00 81 1017.0
20260906140052 25 84 0.0 0.0 0.00 0.00 0.00 83 1016.8
20260906135516 25 84 0.0 0.0 0.00 0.00 0.00 84 1017.0
20260906135018 24 84 0.0 0.0 0.00 0.00 0.00 84 1017.0
20260906134545 24 84 0.0 0.0 0.00 0.00 0.00 85 1017.2
20260906134020 23 84 0.0 0.0 0.00 0.00 0.00 85 1016.8
20260906133518 23 84 0.0 0.0 0.00 0.00 0.00 86 1016.9
20260906133100 23 84 0.0 0.0 0.00 0.00 0.00 88 1016.7
20260906132519 22 84 0.0 0.0 0.00 0.00 0.00 90 1016.6
20260906132017 22 84 0.0 0.0 0.00 0.00 0.00 91 1016.5
20260906131552 21 84 0.0 0.0 0.00 0.00 0.00 92 1016.5
20260906131019 21 84 0.0 0.0 0.00 0.00 0.00 91 1016.6
20260906130519 21 84 0.0 0.0 0.00 0.00 0.00 91 1016.5
20260906130051 21 84 0.0 0.0 0.00 0.00 0.00 90 1016.4
20260906125518 21 84 0.0 0.0 0.00 0.00 0.00 90 1016.3
20260906125019 20 84 0.0 0.0 0.00 0.00 0.00 90 1016.2
20260906124552 20 84 0.0 0.0 0.00 0.00 0.00 90 1016.0
20260906124018 20 84 0.0 0.0 0.00 0.00 0.00 90 1015.9
20260906123518 20 84 0.0 0.0 0.00 0.00 0.00 90 1015.9
20260906123047 20 84 0.0 0.0 0.00 0.00 0.00 90 1015.8
20260906122520 20 84 0.0 0.0 0.00 0.00 0.00 89 1015.7
20260906122021 20 84 0.0 0.0 0.00 0.00 0.00 89 1015.6
20260906121543 20 84 0.0 0.0 0.00 0.00 0.00 89 1015.6
20260906121019 20 84 0.0 0.0 0.00 0.00 0.00 88 1015.5
20260906120521 20 84 0.0 0.0 0.00 0.00 0.00 89 1015.4
20260906120050 20 84 0.0 0.0 0.00 0.00 0.00 88 1015.2
20260906115521 20 84 0.0 0.0 0.00 0.00 0.00 89 1015.3
20260906115022 20 84 0.0 0.0 0.00 0.00 0.00 89 1015.3
20260906114546 20 84 0.0 0.0 0.00 0.00 0.00 89 1015.3
20260906114018 20 84 0.0 0.0 0.00 0.00 0.00 89 1015.2
20260906113519 20 84 0.0 0.0 0.00 0.00 0.00 89 1015.2
20260906113045 20 84 0.0 0.0 0.00 0.00 0.00 89 1015.0
20260906112517 20 84 0.0 0.0 0.00 0.00 0.00 89 1015.1
20260906112019 20 84 0.0 0.0 0.00 0.00 0.00 89 1015.0
20260906111553 20 84 0.0 0.0 0.00 0.00 0.00 89 1014.9
20260906111016 20 84 0.0 0.0 0.00 0.00 0.00 89 1014.9
20260906110516 20 84 0.0 0.0 0.00 0.00 0.00 89 1014.9
20260906110055 20 84 0.0 0.0 0.00 0.00 0.00 89 1014.9
20260906105521 20 84 0.0 0.0 0.00 0.00 0.00 89 1014.9
20260906105018 20 84 0.0 0.0 0.00 0.00 0.00 89 1014.9
20260906104546 20 84 0.0 0.0 0.00 0.00 0.00 89 1014.9
20260906104019 20 84 0.0 0.0 0.00 0.00 0.00 89 1014.8
20260906103519 20 84 0.0 0.0 0.00 0.00 0.00 89 1014.9
20260906103044 20 84 0.0 0.0 0.00 0.00 0.00 89 1014.9
20260906102520 20 84 0.0 0.0 0.00 0.00 0.00 88 1014.7
20260906102017 20 84 0.0 0.0 0.00 0.00 0.00 88 1014.7
20260906101553 20 84 0.0 0.0 0.00 0.00 0.00 88 1014.7
20260906101019 20 84 0.0 0.0 0.00 0.00 0.00 88 1014.7
20260906100521 20 84 0.0 0.0 0.00 0.00 0.00 87 1014.8
20260906100049 20 84 0.0 0.0 0.00 0.00 0.00 87 1014.7
20260906095517 20 84 0.0 0.0 0.00 0.00 0.00 87 1014.6
20260906095018 20 84 0.0 0.0 0.00 0.00 0.00 87 1014.6
20260906094600 20 84 0.0 0.0 0.00 0.00 0.00 87 1014.6
20260906094019 20 84 0.0 0.0 0.00 0.00 0.00 87 1014.6
20260906093520 20 84 0.0 0.0 0.00 0.00 0.00 87 1014.6
20260906093107 21 84 0.0 0.0 0.00 0.00 0.00 86 1014.6
20260906092517 21 84 0.0 0.0 0.00 0.00 0.00 86 1014.6
20260906092020 21 84 0.0 0.0 0.00 0.00 0.00 86 1014.7
20260906091550 21 84 0.0 0.0 0.00 0.00 0.00 86 1014.7
20260906091016 21 84 0.0 0.0 0.00 0.00 0.00 85 1014.8
20260906090516 21 84 0.0 0.0 0.00 0.00 0.00 85 1014.9
20260906090114 21 84 0.0 0.0 0.00 0.00 0.00 85 1014.8
20260906085519 21 84 0.0 0.0 0.00 0.00 0.00 85 1014.8
20260906085019 21 84 0.0 0.0 0.00 0.00 0.00 85 1014.8
20260906084601 21 84 0.0 0.0 0.00 0.00 0.00 85 1014.7
20260906084018 21 84 0.0 0.0 0.00 0.00 0.00 85 1014.7
20260906083519 21 84 0.0 0.0 0.00 0.00 0.00 85 1014.7
20260906083053 21 84 0.0 0.0 0.00 0.00 0.00 85 1014.7
20260906082517 21 84 0.0 0.0 0.00 0.00 0.00 85 1014.7
20260906082017 21 84 0.0 0.0 0.00 0.00 0.00 85 1014.7
20260906081551 21 84 0.0 0.0 0.00 0.00 0.00 85 1014.8
20260906081021 21 84 0.0 0.0 0.00 0.00 0.00 85 1014.7
20260906080518 21 84 0.0 0.0 0.00 0.00 0.00 85 1014.6
20260906080106 21 84 0.0 0.0 0.00 0.00 0.00 86 1014.6
20260906075517 21 84 0.0 0.0 0.00 0.00 0.00 86 1014.6
20260906075018 21 84 0.0 0.0 0.00 0.00 0.00 86 1014.8
20260906074600 21 84 0.0 0.0 0.00 0.00 0.00 86 1014.7
20260906074021 21 84 0.0 0.0 0.00 0.00 0.00 86 1014.7
20260906073518 21 84 0.0 0.0 0.00 0.00 0.00 86 1014.5
20260906073054 21 84 0.0 0.0 0.00 0.00 0.00 86 1014.5
20260906072519 21 84 0.0 0.0 0.00 0.00 0.00 86 1014.5
20260906072018 21 84 0.0 0.0 0.00 0.00 0.00 86 1014.4
20260906071552 21 84 0.0 0.0 0.00 0.00 0.00 86 1014.4
20260906071021 21 84 0.0 0.0 0.00 0.00 0.00 86 1014.4
20260906070522 21 84 0.0 0.0 0.00 0.00 0.00 86 1014.4
20260906070045 21 84 0.0 0.0 0.00 0.00 0.00 85 1014.5
20260906065526 21 84 0.0 0.0 0.00 0.00 0.00 85 1014.5
20260906065021 21 84 0.0 0.0 0.00 0.00 0.00 85 1014.5
20260906064551 21 84 0.0 0.0 0.00 0.00 0.00 85 1014.5
20260906064021 21 84 0.0 0.0 0.00 0.00 0.00 85 1014.5
20260906063525 21 84 0.0 0.0 0.00 0.00 0.00 85 1014.4
20260906063048 21 84 0.0 0.0 0.00 0.00 0.00 84 1014.4
20260906062518 22 84 0.0 0.0 0.00 0.00 0.00 84 1014.3
20260906062020 22 84 0.0 0.0 0.00 0.00 0.00 84 1014.3
20260906061602 22 84 0.0 0.0 0.00 0.00 0.00 84 1014.3
20260906061019 22 84 0.0 0.0 0.00 0.00 0.00 84 1014.4
20260906060517 22 84 0.0 0.0 0.00 0.00 0.00 84 1014.3
20260906060051 22 84 0.0 0.0 0.00 0.00 0.00 84 1014.4
20260906055519 22 84 0.0 0.0 0.00 0.00 0.00 84 1014.4
20260906055020 22 84 0.0 0.0 0.00 0.00 0.00 83 1014.4
20260906054553 22 84 0.0 0.0 0.00 0.00 0.00 83 1014.4
20260906054018 22 84 0.0 0.0 0.00 0.00 0.00 83 1014.4
20260906053519 22 84 0.0 0.0 0.00 0.00 0.00 83 1014.3
20260906053110 22 84 0.0 0.0 0.00 0.00 0.00 82 1014.3
20260906052517 22 84 0.0 0.0 0.00 0.00 0.00 82 1014.3
20260906052020 22 84 0.0 0.0 0.00 0.00 0.00 82 1014.4
20260906051552 22 84 0.0 0.0 0.00 0.00 0.00 82 1014.3
20260906051024 22 84 0.0 0.0 0.00 0.00 0.00 82 1014.3
20260906050519 22 84 0.0 0.0 0.00 0.00 0.00 81 1014.2
20260906050101 22 84 0.0 0.0 0.00 0.00 0.00 81 1014.0
20260906045520 23 84 0.0 0.0 0.00 0.00 0.00 81 1014.1
20260906045018 23 84 0.0 0.0 0.00 0.00 0.00 81 1014.1
20260906044611 23 84 0.0 0.0 0.00 0.00 0.00 80 1014.2
20260906044023 23 84 0.0 0.0 0.00 0.00 0.00 80 1014.1
20260906043517 23 84 0.0 0.0 0.00 0.00 0.00 80 1014.1
20260906043039 23 84 0.0 0.0 0.00 0.00 0.00 80 1014.1
20260906042520 23 84 0.0 0.0 0.00 0.00 0.00 79 1014.2
20260906042019 23 84 0.0 0.0 0.00 0.00 0.00 79 1014.3
20260906041548 23 84 0.0 0.0 0.00 0.00 0.00 79 1014.3
20260906041018 23 84 0.0 0.0 0.00 0.00 0.00 79 1014.3
20260906040517 23 84 0.0 0.0 0.00 0.00 0.00 79 1014.3
20260906040043 23 84 0.0 0.0 0.00 0.00 0.00 78 1014.4
20260906035518 24 84 0.0 0.0 0.00 0.00 0.00 78 1014.4
20260906035016 24 84 0.0 0.0 0.00 0.00 0.00 77 1014.4
20260906034543 24 84 0.0 0.0 0.00 0.00 0.00 76 1014.3
20260906034018 24 111 0.0 0.0 0.00 0.00 0.00 76 1014.2
20260906033515 25 111 0.0 0.0 0.00 0.00 0.00 76 1014.1
20260906033045 25 111 0.0 0.0 0.00 0.00 0.00 76 1014.2
20260906032517 25 111 0.0 0.0 0.00 0.00 0.00 76 1014.2
20260906032019 25 111 0.0 0.0 0.00 0.00 0.00 75 1014.1
20260906031542 25 111 0.0 0.0 0.00 0.00 0.00 75 1014.0
20260906031016 25 111 0.0 0.0 0.00 0.00 0.00 74 1014.0
20260906030518 25 111 0.0 0.0 0.00 0.00 0.00 75 1013.7
20260906030041 25 111 0.0 0.0 0.00 0.00 0.00 75 1013.7
20260906025521 25 111 0.0 0.0 0.00 0.00 0.00 74 1013.8
20260906025020 25 111 0.0 0.0 0.00 0.00 0.00 73 1013.8
20260906024605 26 111 0.0 0.0 0.00 0.00 0.00 73 1013.6
20260906024017 26 111 0.0 0.0 0.00 0.00 0.00 73 1013.6
20260906023518 26 111 0.0 0.0 0.00 0.00 0.00 72 1013.5
20260906023041 26 111 0.0 0.0 0.00 0.00 0.00 71 1013.4
20260906022518 27 111 0.0 0.0 0.00 0.00 0.00 70 1013.3
20260906022021 27 229 0.0 0.0 0.00 0.00 0.00 68 1013.2
20260906021542 27 229 0.0 0.0 0.00 0.00 0.00 68 1013.1
20260906021016 27 229 0.0 0.0 0.00 0.00 0.00 66 1013.1
20260906020518 27 229 0.0 0.0 0.00 0.00 0.00 65 1012.8
20260906020045 28 229 0.0 0.0 0.00 0.00 0.00 65 1012.5
20260906015520 28 229 0.0 0.0 0.00 0.00 0.00 65 1012.5
20260906015019 28 229 0.0 0.0 0.00 0.00 0.00 65 1012.5
20260906014546 28 229 0.0 0.0 0.00 0.00 0.00 63 1012.6
20260906014019 28 229 0.0 0.0 0.00 0.00 0.00 64 1012.3
20260906013522 28 229 0.0 0.0 0.00 0.00 0.00 65 1012.2
20260906013041 28 229 0.0 0.0 0.00 0.00 0.00 66 1012.1
20260906012518 28 229 0.0 1.6 0.00 0.00 0.00 65 1012.1
20260906012022 29 213 0.0 1.6 0.00 0.00 0.00 65 1012.2
20260906011555 29 178 0.0 0.0 0.00 0.00 0.00 62 1012.1
20260906011020 29 178 0.0 0.0 0.00 0.00 0.00 62 1012.4
20260906010524 30 178 0.0 0.0 0.00 0.00 0.00 63 1012.3
20260906010115 30 178 0.0 0.0 0.00 0.00 0.00 62 1012.3
20260906005519 30 178 0.0 0.0 0.00 0.00 0.00 60 1012.4
20260906005021 31 178 0.0 0.0 0.00 0.00 0.00 58 1012.4
20260906004547 31 160 0.0 0.0 0.00 0.00 0.00 56 1012.5
20260906004018 31 160 0.0 0.0 0.00 0.00 0.00 55 1012.5
20260906003518 31 167 0.0 0.0 0.00 0.00 0.00 55 1012.5
20260906003047 32 150 0.0 0.0 0.00 0.00 0.00 54 1012.5
20260906002519 32 150 0.0 0.0 0.00 0.00 0.00 54 1012.6
20260906002018 32 150 0.0 0.0 0.00 0.00 0.00 52 1012.7
20260906001559 32 148 0.0 0.0 0.00 0.00 0.00 51 1012.7
20260906001022 32 143 0.0 0.0 0.00 0.00 0.00 51 1012.7
20260906000520 33 145 0.0 0.0 0.00 0.00 0.00 50 1012.8
20260906000046 33 137 0.0 0.0 0.00 0.00 0.00 49 1012.8
20260905235519 33 139 0.0 0.0 0.00 0.00 0.00 48 1012.8
20260905235022 33 140 0.0 0.0 0.00 0.00 0.00 48 1012.7
20260905234544 33 144 0.0 0.0 0.00 0.00 0.00 48 1012.9
20260905234018 33 147 0.0 0.0 0.00 0.00 0.00 47 1012.8
20260905233518 33 153 0.0 0.0 0.00 0.00 0.00 48 1012.8
20260905233045 33 161 0.0 0.0 0.00 0.00 0.00 48 1012.8
20260905232519 33 179 0.0 0.0 0.00 0.00 0.00 47 1012.8
20260905232019 33 158 0.0 0.0 0.00 0.00 0.00 47 1012.6
20260905231545 33 163 0.0 0.0 0.00 0.00 0.00 48 1012.7
20260905231020 33 134 0.0 0.0 0.00 0.00 0.00 48 1012.7
20260905230519 33 157 0.0 0.0 0.00 0.00 0.00 49 1012.7
20260905230041 33 156 0.0 0.0 0.00 0.00 0.00 50 1012.5
20260905225516 33 144 0.0 0.0 0.00 0.00 0.00 51 1012.6
20260905225016 33 163 0.0 0.0 0.00 0.00 0.00 49 1012.7
20260905224547 33 161 0.0 0.0 0.00 0.00 0.00 48 1012.6
20260905224021 33 167 0.0 0.0 0.00 0.00 0.00 48 1012.5
20260905223517 34 182 0.0 0.0 0.00 0.00 0.00 48 1012.5
20260905223047 34 167 0.0 1.6 0.00 0.00 0.00 47 1012.6
20260905222518 34 171 0.0 1.6 0.00 0.00 0.00 45 1012.7
20260905222018 34 169 0.0 0.0 0.00 0.00 0.00 46 1012.7
20260905221551 35 168 0.0 0.0 0.00 0.00 0.00 45 1012.8
20260905221020 35 170 0.0 1.6 0.00 0.00 0.00 43 1012.8
20260905220518 35 146 0.0 1.6 0.00 0.00 0.00 43 1012.9
20260905220047 35 161 0.0 0.0 0.00 0.00 0.00 43 1012.8
20260905215521 35 169 0.0 8.0 0.00 0.00 0.00 45 1012.8
20260905215019 35 171 0.0 8.0 0.00 0.00 0.00 45 1012.8
20260905214544 35 182 4.8 9.7 0.00 0.00 0.00 43 1012.9
20260905214017 35 169 6.4 14.5 0.00 0.00 0.00 42 1012.9
20260905213519 36 192 4.8 14.5 0.00 0.00 0.00 42 1013.1
20260905213054 36 203 6.4 12.9 0.00 0.00 0.00 40 1013.0
20260905212518 36 143 6.4 12.9 0.00 0.00 0.00 40 1012.9
20260905212017 36 167 4.8 16.1 0.00 0.00 0.00 40 1013.0
20260905211548 37 195 8.0 16.1 0.00 0.00 0.00 38 1013.2
20260905211019 37 169 6.4 16.1 0.00 0.00 0.00 39 1013.1
20260905210518 37 217 8.0 17.7 0.00 0.00 0.00 41 1013.1
20260905210045 37 163 4.8 17.7 0.00 0.00 0.00 39 1013.1
20260905205518 37 157 9.7 17.7 0.00 0.00 0.00 39 1013.1
20260905205018 37 143 8.0 17.7 0.00 0.00 0.00 39 1013.1
20260905204543 37 203 9.7 16.1 0.00 0.00 0.00 40 1013.2
20260905204019 37 180 0.0 14.5 0.00 0.00 0.00 40 1013.2
20260905203518 37 228 4.8 16.1 0.00 0.00 0.00 41 1013.3
20260905203055 37 178 8.0 20.9 0.00 0.00 0.00 39 1013.4
20260905202521 37 171 11.3 20.9 0.00 0.00 0.00 38 1013.4
20260905202020 37 180 9.7 16.1 0.00 0.00 0.00 38 1013.4
20260905201556 37 138 9.7 16.1 0.00 0.00 0.00 39 1013.6
20260905201017 38 200 8.0 19.3 0.00 0.00 0.00 38 1013.8
20260905200520 38 146 6.4 19.3 0.00 0.00 0.00 38 1014.0
20260905200046 37 133 11.3 17.7 0.00 0.00 0.00 38 1014.1
20260905195517 38 159 8.0 17.7 0.00 0.00 0.00 39 1014.2
20260905195021 37 195 6.4 14.5 0.00 0.00 0.00 39 1014.3
20260905194552 38 259 9.7 14.5 0.00 0.00 0.00 40 1014.3
20260905194019 38 190 4.8 11.3 0.00 0.00 0.00 38 1014.4
20260905193517 38 216 0.0 12.9 0.00 0.00 0.00 38 1014.4
20260905193048 37 222 6.4 14.5 0.00 0.00 0.00 40 1014.5
20260905192519 38 217 9.7 16.1 0.00 0.00 0.00 41 1014.6
20260905192019 37 249 4.8 14.5 0.00 0.00 0.00 42 1014.6
20260905191544 37 204 8.0 14.5 0.00 0.00 0.00 42 1014.6